When you browse on this site, cookies collect data to enhance your experience and personalize the content and advertising you see.
Visit our Privacy Policy to learn more. By continuing to use the site, you agree to this use of cookies and data.
  • en Suisse
  • Liste des pays
  • À 7 jours
  • Température de l'eau
  • Carte météo
  • Widgets météo
  • user-avatar
    Se connecter

    Météo par heure à Santa Fe

    Ce jour, 12 Novembre, Mardi

    Heure Température Précipitation Vent Pression Humidité
    00:00 +21°C° 0 mm 3 m/s 758 mmHg 89%
    01:00 +21°C° 0 mm 3 m/s 758 mmHg 91%
    02:00 +20°C° 0 mm 3 m/s 757 mmHg 93%
    03:00 +20°C° 0 mm 3 m/s 757 mmHg 94%
    04:00 +19°C° 0 mm 3 m/s 757 mmHg 94%
    05:00 +19°C° 0 mm 3 m/s 757 mmHg 95%
    06:00 +20°C° 0 mm 3 m/s 758 mmHg 89%
    07:00 +22°C° 0 mm 4 m/s 758 mmHg 83%
    08:00 +23°C° 0 mm 4 m/s 759 mmHg 77%
    09:00 +26°C° 0 mm 3 m/s 758 mmHg 70%
    10:00 +28°C° 0 mm 3 m/s 758 mmHg 63%
    11:00 +30°C° 0 mm 3 m/s 757 mmHg 57%
    12:00 +31°C° 0 mm 2 m/s 756 mmHg 53%
    13:00 +32°C° 0 mm 2 m/s 756 mmHg 48%
    14:00 +34°C° 0 mm 2 m/s 755 mmHg 44%
    15:00 +34°C° 0 mm 2 m/s 755 mmHg 46%
    16:00 +32°C° 0 mm 2 m/s 754 mmHg 48%
    17:00 +32°C° 0 mm 2 m/s 754 mmHg 49%
    18:00 +30°C° 0 mm 3 m/s 754 mmHg 56%
    19:00 +28°C° 0 mm 3 m/s 754 mmHg 62%
    20:00 +27°C° 0 mm 4 m/s 755 mmHg 68%
    21:00 +26°C° 0 mm 3 m/s 755 mmHg 70%
    22:00 +25°C° 0 mm 3 m/s 755 mmHg 73%
    23:00 +25°C° 0 mm 3 m/s 755 mmHg 75%

    Demain, 13 Novembre, Mercredi

    Heure Température Précipitation Vent Pression Humidité
    00:00 +25°C° 0 mm 3 m/s 755 mmHg 77%
    01:00 +24°C° 0 mm 3 m/s 754 mmHg 79%
    02:00 +24°C° 0 mm 3 m/s 754 mmHg 81%
    03:00 +22°C° 0.4 mm 3 m/s 754 mmHg 85%
    04:00 +23°C° 0.4 mm 2 m/s 754 mmHg 89%
    05:00 +23°C° 0.4 mm 1 m/s 754 mmHg 93%
    06:00 +24°C° 0.4 mm 1 m/s 754 mmHg 90%
    07:00 +25°C° 0.4 mm 2 m/s 755 mmHg 87%
    08:00 +26°C° 0.4 mm 2 m/s 755 mmHg 84%
    09:00 +26°C° 2 mm 2 m/s 755 mmHg 85%
    10:00 +25°C° 2 mm 3 m/s 755 mmHg 87%
    11:00 +25°C° 2 mm 4 m/s 755 mmHg 88%
    12:00 +26°C° 0.1 mm 3 m/s 755 mmHg 81%
    13:00 +27°C° 0.1 mm 3 m/s 754 mmHg 73%
    14:00 +29°C° 0.1 mm 2 m/s 754 mmHg 65%
    15:00 +28°C° 0 mm 3 m/s 753 mmHg 67%
    16:00 +27°C° 0 mm 4 m/s 753 mmHg 68%
    17:00 +27°C° 0 mm 5 m/s 752 mmHg 70%
    18:00 +25°C° 0 mm 4 m/s 753 mmHg 75%
    19:00 +24°C° 0 mm 3 m/s 754 mmHg 80%
    20:00 +21°C° 0 mm 3 m/s 754 mmHg 84%
    21:00 +21°C° 0 mm 2 m/s 755 mmHg 87%
    22:00 +20°C° 0 mm 2 m/s 755 mmHg 89%
    23:00 +20°C° 0 mm 1 m/s 755 mmHg 92%

    Après-demain, 14 Novembre, Jeudi

    Heure Température Précipitation Vent Pression Humidité
    00:00 +20°C° 0 mm 1 m/s 755 mmHg 91%
    01:00 +20°C° 0 mm 1 m/s 755 mmHg 90%
    02:00 +20°C° 0 mm 1 m/s 754 mmHg 89%
    03:00 +20°C° 0 mm 1 m/s 755 mmHg 89%
    04:00 +19°C° 0 mm 2 m/s 755 mmHg 88%
    05:00 +19°C° 0 mm 2 m/s 755 mmHg 88%
    06:00 +21°C° 0 mm 2 m/s 755 mmHg 80%
    07:00 +24°C° 0 mm 3 m/s 756 mmHg 71%
    08:00 +26°C° 0 mm 3 m/s 756 mmHg 63%
    09:00 +28°C° 0 mm 4 m/s 756 mmHg 56%
    10:00 +32°C° 0 mm 5 m/s 755 mmHg 49%
    11:00 +34°C° 0 mm 5 m/s 755 mmHg 42%
    12:00 +35°C° 0 mm 5 m/s 755 mmHg 37%
    13:00 +35°C° 0 mm 6 m/s 754 mmHg 32%
    14:00 +36°C° 0 mm 6 m/s 754 mmHg 26%
    15:00 +35°C° 0 mm 5 m/s 754 mmHg 28%
    16:00 +35°C° 0 mm 4 m/s 753 mmHg 30%
    17:00 +34°C° 0 mm 3 m/s 753 mmHg 32%
    18:00 +30°C° 0 mm 3 m/s 754 mmHg 35%
    19:00 +28°C° 0 mm 3 m/s 754 mmHg 38%
    20:00 +26°C° 0 mm 3 m/s 755 mmHg 41%
    21:00 +25°C° 0 mm 3 m/s 755 mmHg 45%
    22:00 +24°C° 0 mm 3 m/s 756 mmHg 50%
    23:00 +22°C° 0 mm 3 m/s 756 mmHg 54%

    15 Novembre, Vendredi

    Heure Température Précipitation Vent Pression Humidité
    00:00 +21°C° 0 mm 3 m/s 756 mmHg 57%
    01:00 +20°C° 0 mm 2 m/s 756 mmHg 60%
    02:00 +19°C° 0 mm 2 m/s 756 mmHg 62%
    03:00 +19°C° 0 mm 2 m/s 756 mmHg 69%
    04:00 +19°C° 0 mm 1 m/s 757 mmHg 75%
    05:00 +19°C° 0 mm 1 m/s 757 mmHg 82%
    06:00 +21°C° 0 mm 1 m/s 757 mmHg 73%
    07:00 +23°C° 0 mm 1 m/s 758 mmHg 64%
    08:00 +25°C° 0 mm 1 m/s 758 mmHg 55%
    09:00 +27°C° 0 mm 1 m/s 758 mmHg 47%
    10:00 +29°C° 0 mm 1 m/s 758 mmHg 39%
    11:00 +31°C° 0 mm 1 m/s 758 mmHg 31%
    12:00 +31°C° 0 mm 1 m/s 757 mmHg 30%
    13:00 +32°C° 0 mm 1 m/s 756 mmHg 28%
    14:00 +33°C° 0 mm 1 m/s 756 mmHg 27%
    15:00 +32°C° 0 mm 1 m/s 755 mmHg 30%
    16:00 +32°C° 0 mm 1 m/s 755 mmHg 33%
    17:00 +32°C° 0 mm 2 m/s 754 mmHg 36%
    18:00 +29°C° 0 mm 2 m/s 754 mmHg 43%
    19:00 +27°C° 0 mm 3 m/s 755 mmHg 49%
    20:00 +24°C° 0 mm 3 m/s 755 mmHg 56%
    21:00 +22°C° 0 mm 3 m/s 755 mmHg 58%
    22:00 +22°C° 0 mm 3 m/s 755 mmHg 59%
    23:00 +21°C° 0 mm 3 m/s 755 mmHg 61%

    16 Novembre, Samedi

    Heure Température Précipitation Vent Pression Humidité
    00:00 +20°C° 0 mm 3 m/s 755 mmHg 62%
    01:00 +20°C° 0 mm 3 m/s 754 mmHg 62%
    02:00 +19°C° 0 mm 3 m/s 754 mmHg 62%
    03:00 +19°C° 0 mm 3 m/s 754 mmHg 64%
    04:00 +19°C° 0 mm 3 m/s 754 mmHg 66%
    05:00 +18°C° 0 mm 3 m/s 754 mmHg 67%
    06:00 +20°C° 0 mm 3 m/s 755 mmHg 62%
    07:00 +22°C° 0 mm 4 m/s 755 mmHg 56%
    08:00 +25°C° 0 mm 4 m/s 756 mmHg 51%
    09:00 +27°C° 0 mm 3 m/s 756 mmHg 48%
    10:00 +28°C° 0 mm 2 m/s 756 mmHg 45%
    11:00 +29°C° 0 mm 1 m/s 756 mmHg 42%
    12:00 +28°C° 0 mm 3 m/s 756 mmHg 48%
    13:00 +26°C° 0 mm 5 m/s 756 mmHg 55%
    14:00 +24°C° 0 mm 7 m/s 756 mmHg 62%
    15:00 +23°C° 0 mm 6 m/s 756 mmHg 67%
    16:00 +22°C° 0 mm 5 m/s 756 mmHg 72%
    17:00 +21°C° 0 mm 5 m/s 756 mmHg 78%
    18:00 +21°C° 0 mm 4 m/s 756 mmHg 75%
    19:00 +22°C° 0 mm 3 m/s 756 mmHg 73%
    20:00 +23°C° 0 mm 2 m/s 756 mmHg 70%
    21:00 +22°C° 0 mm 1 m/s 756 mmHg 72%
    22:00 +21°C° 0 mm 1 m/s 756 mmHg 73%
    23:00 +21°C° 0 mm 1 m/s 756 mmHg 74%

    17 Novembre, Dimanche

    Heure Température Précipitation Vent Pression Humidité
    00:00 +20°C° 0 mm 1 m/s 756 mmHg 75%
    01:00 +20°C° 0 mm 1 m/s 756 mmHg 77%
    02:00 +20°C° 0 mm 1 m/s 756 mmHg 78%
    03:00 +18°C° 0 mm 2 m/s 756 mmHg 80%
    04:00 +18°C° 0 mm 2 m/s 756 mmHg 82%
    05:00 +18°C° 0 mm 2 m/s 757 mmHg 84%
    06:00 +20°C° 0 mm 2 m/s 757 mmHg 78%
    07:00 +22°C° 0 mm 3 m/s 757 mmHg 73%
    08:00 +25°C° 0 mm 3 m/s 758 mmHg 67%
    09:00 +27°C° 0 mm 3 m/s 757 mmHg 60%
    10:00 +29°C° 0 mm 4 m/s 757 mmHg 53%
    11:00 +32°C° 0 mm 4 m/s 757 mmHg 46%
    12:00 +33°C° 0 mm 4 m/s 756 mmHg 43%
    13:00 +34°C° 0 mm 4 m/s 756 mmHg 40%
    14:00 +34°C° 0 mm 4 m/s 755 mmHg 37%
    15:00 +34°C° 0 mm 4 m/s 755 mmHg 39%
    16:00 +33°C° 0 mm 4 m/s 754 mmHg 41%
    17:00 +33°C° 0 mm 4 m/s 754 mmHg 43%
    18:00 +30°C° 0 mm 3 m/s 754 mmHg 47%
    19:00 +28°C° 0 mm 3 m/s 755 mmHg 50%
    20:00 +26°C° 0 mm 3 m/s 755 mmHg 54%
    21:00 +26°C° 0 mm 3 m/s 755 mmHg 58%
    22:00 +25°C° 0 mm 3 m/s 755 mmHg 62%
    23:00 +25°C° 0 mm 3 m/s 756 mmHg 65%
    Voir plus